Location: ???? ?????????
(31.1304°N, 31.7111°E)
Time: 18:18:12
(UTC+00:00)

Atlas Centaur 2 - Pass Details

Date: 29 October 2020
Orbit: 459 x 1309 km, 30.4° (Epoch: 29 November)

Event Time Altitude Azimuth Distance (km) Brightness Sun altitude
Rises 15:27:59 0° 257° (WSW) 3,976 8.8 -5.2°
Reaches altitude 10° 15:30:40 10° 256° (WSW) 3,107 7.0 -5.8°
Maximum altitude 15:38:41 80° 171° (S) 1,307 3.2 -7.4°
Enters shadow 15:47:08 11° 86° (E) 3,271 4.6 -9.2°
